Kremmling, CO

12:08 AM MDT on April 30, 2017 (GMT -0600)
Kremmling

Weather History for K20V - August, 2012

Change the Weather History Date:

Tuesday, August 28, 2012

  Actual Average Record
Temperature  
Mean Temperature 66 °F -  
Max Temperature 87 °F - 89 °F (2013)
Min Temperature 46 °F - 32 °F (2004)
Degree Days  
Heating Degree Days 0    
Month to date heating degree days  
Cooling Degree Days 2    
Month to date cooling degree days  
Growing Degree Days 16 (Base 50)    
Moisture  
Dew Point 39 °F    
Average Humidity 48    
Maximum Humidity 76    
Minimum Humidity 12    
Precipitation  
Precipitation 0.00 in - 0.11 in (2013)
Sea Level Pressure  
Sea Level Pressure 30.45 in    
Wind  
Wind Speed 2 mph (WSW)    
Max Wind Speed 14 mph    
Max Gust Speed 18 mph    
Visibility 10 miles    
Events Rain , Thunderstorm    
T = Trace of Precipitation, MM = Missing Value Source: NWS Daily Summary

Daily Weather History Graph

Daily Weather History Graph

Search for Another Location

Airport or City:

Trip Planner

Search our weather history database for the weather conditions in past years. The results will help you decide how hot, cold, wet, or windy it might be!

Date:

Astronomy

Aug. 28, 2012 Rise Set
Actual Time 6:29 AM MDT 7:42 PM MDT
Civil Twilight 6:01 AM MDT 8:10 PM MDT
Nautical Twilight 5:28 AM MDT 8:43 PM MDT
Astronomical Twilight 4:53 AM MDT 9:18 PM MDT
Moon 5:47 PM MDT (8/28) 3:22 AM MDT (8/28)
Length of Visible Light 14h 08m
Length of Day
13h 12m
Waxing Gibbous, 91% of the Moon is Illuminated
Aug 28
Waxing Gibbous
Aug 31
Full
Sep 8
Last Quarter
Sep 15
New
Sep 22
First Quarter

Hourly Weather History & Observations

Time (MDT) Temp. Dew Point Humidity Pressure Visibility Wind Dir Wind Speed Gust Speed Precip Events Conditions
12:15 AM 53.6 °F 41.0 °F 62% 30.48 in 10.0 mi Calm Calm - N/A   Clear
12:35 AM 53.6 °F 42.8 °F 67% 30.48 in 10.0 mi ESE 8.1 mph - N/A   Clear
12:55 AM 53.6 °F 41.0 °F 62% 30.49 in 10.0 mi East 6.9 mph - N/A   Clear
1:15 AM 53.6 °F 41.0 °F 62% 30.49 in 10.0 mi South 3.5 mph - N/A   Clear
1:35 AM 51.8 °F 41.0 °F 67% 30.49 in 10.0 mi Calm Calm - N/A   Clear
1:55 AM 50.0 °F 41.0 °F 71% 30.49 in 10.0 mi Calm Calm - N/A   Clear
2:15 AM 50.0 °F 41.0 °F 71% 30.49 in 10.0 mi Calm Calm - N/A   Clear
2:35 AM 50.0 °F 37.4 °F 62% 30.49 in 10.0 mi Calm Calm - N/A   Clear
2:55 AM 50.0 °F 41.0 °F 71% 30.49 in 10.0 mi Calm Calm - N/A   Clear
3:15 AM 48.2 °F 39.2 °F 71% 30.49 in 10.0 mi Calm Calm - N/A   Clear
3:35 AM 48.2 °F 41.0 °F 76% 30.49 in 10.0 mi Calm Calm - N/A   Clear
3:54 AM 46.4 °F 39.2 °F 76% 30.49 in 10.0 mi Calm Calm - N/A   Clear
4:15 AM 50.0 °F 41.0 °F 71% 30.49 in 10.0 mi Calm Calm - N/A   Clear
4:35 AM 46.4 °F 39.2 °F 76% 30.49 in 10.0 mi Calm Calm - N/A   Clear
4:55 AM 50.0 °F 41.0 °F 71% 30.50 in 10.0 mi Calm Calm - N/A   Clear
5:15 AM 50.0 °F 41.0 °F 71% 30.50 in 10.0 mi Calm Calm - N/A   Clear
5:34 AM 50.0 °F 41.0 °F 71% 30.50 in 10.0 mi Calm Calm - N/A   Clear
5:55 AM 50.0 °F 41.0 °F 71% 30.51 in 10.0 mi Calm Calm - N/A   Clear
6:15 AM 50.0 °F 41.0 °F 71% 30.51 in 10.0 mi Calm Calm - N/A   Clear
6:35 AM 50.0 °F 41.0 °F 71% 30.52 in 10.0 mi Calm Calm - N/A   Clear
6:55 AM 50.0 °F 41.0 °F 71% 30.53 in 10.0 mi SW 3.5 mph - N/A   Clear
7:15 AM 50.0 °F 41.0 °F 71% 30.53 in 10.0 mi Calm Calm - N/A   Clear
7:34 AM 50.0 °F 41.0 °F 71% 30.54 in 10.0 mi Calm Calm - N/A   Clear
7:55 AM 50.0 °F 41.0 °F 71% 30.54 in 10.0 mi Calm Calm - N/A   Clear
8:35 AM 51.8 °F 41.0 °F 67% 30.54 in 10.0 mi Calm Calm - N/A   Clear
8:55 AM 51.8 °F 41.0 °F 67% 30.55 in 10.0 mi Calm Calm - N/A   Clear
9:15 AM 53.6 °F 42.8 °F 67% 30.54 in 10.0 mi Calm Calm - N/A   Clear
9:35 AM 53.6 °F 41.0 °F 62% 30.55 in 10.0 mi Calm Calm - N/A   Clear
9:55 AM 59.0 °F 41.0 °F 51% 30.54 in 10.0 mi Calm Calm - N/A   Clear
10:15 AM 60.8 °F 41.0 °F 48% 30.53 in 10.0 mi Calm Calm - N/A   Clear
10:35 AM 66.2 °F 41.0 °F 40% 30.52 in 10.0 mi Calm Calm - N/A   Clear
10:55 AM 64.4 °F 41.0 °F 42% 30.52 in 10.0 mi Calm Calm - N/A   Clear
11:15 AM 68.0 °F 41.0 °F 37% 30.51 in 10.0 mi South 3.5 mph - N/A   Clear
11:35 AM 69.8 °F 37.4 °F 31% 30.49 in 10.0 mi Calm Calm - N/A   Clear
11:55 AM 73.4 °F 39.2 °F 29% 30.49 in 10.0 mi ENE 3.5 mph - N/A   Clear
12:15 PM 73.4 °F 35.6 °F 25% 30.47 in 10.0 mi Calm Calm - N/A   Clear
12:35 PM 78.8 °F 37.4 °F 23% 30.45 in 10.0 mi Calm Calm - N/A   Clear
12:55 PM 80.6 °F 33.8 °F 18% 30.44 in 10.0 mi ESE 5.8 mph - N/A Thunderstorm Thunderstorm
1:15 PM 82.4 °F 32.0 °F 16% 30.42 in 10.0 mi South 3.5 mph - N/A   Clear
1:35 PM 82.4 °F 32.0 °F 16% 30.41 in 10.0 mi NNW 3.5 mph - N/A   Clear
1:55 PM 82.4 °F 32.0 °F 16% 30.40 in 10.0 mi Calm Calm - N/A   Clear
2:15 PM 82.4 °F 32.0 °F 16% 30.39 in 10.0 mi Calm Calm - N/A   Clear
2:55 PM 82.4 °F 33.8 °F 17% 30.37 in 10.0 mi WNW 13.8 mph 18.4 mph N/A   Clear
3:14 PM 84.2 °F 32.0 °F 15% 30.36 in 10.0 mi NW 10.4 mph - N/A   Clear
3:35 PM 87.8 °F 30.2 °F 13% 30.36 in 10.0 mi West 10.4 mph - N/A   Clear
3:55 PM 87.8 °F 30.2 °F 13% 30.35 in 10.0 mi NNW 8.1 mph - N/A Thunderstorm Clear
4:15 PM 84.2 °F 30.2 °F 14% 30.35 in 10.0 mi NW 5.8 mph - N/A   Clear
4:34 PM 78.8 °F 32.0 °F 18% 30.35 in 10.0 mi West 11.5 mph 18.4 mph N/A Thunderstorm Clear
4:54 PM 80.6 °F 30.2 °F 16% 30.35 in 10.0 mi WNW 6.9 mph - N/A Thunderstorm Clear
5:15 PM 82.4 °F 28.4 °F 14% 30.35 in 10.0 mi WNW 5.8 mph - N/A   Clear
5:35 PM 82.4 °F 26.6 °F 13% 30.35 in 10.0 mi Calm Calm - N/A   Clear
5:55 PM 82.4 °F 24.8 °F 12% 30.36 in 10.0 mi SW 3.5 mph - N/A   Mostly Cloudy
6:15 PM 77.0 °F 39.2 °F 26% 30.37 in 10.0 mi East 11.5 mph - N/A   Overcast
6:35 PM 73.4 °F 37.4 °F 27% 30.39 in 10.0 mi SW 6.9 mph 16.1 mph N/A   Mostly Cloudy
6:55 PM 71.6 °F 41.0 °F 33% 30.40 in 10.0 mi Calm Calm - N/A   Mostly Cloudy
7:15 PM 69.8 °F 41.0 °F 35% 30.41 in 10.0 mi East 8.1 mph - N/A   Mostly Cloudy
7:35 PM 69.8 °F 41.0 °F 35% 30.41 in 10.0 mi SW 5.8 mph - N/A   Overcast
7:54 PM 66.2 °F 44.6 °F 46% 30.41 in 10.0 mi South 9.2 mph - N/A Rain Light Rain
8:14 PM 64.4 °F 44.6 °F 49% 30.42 in 10.0 mi Calm Calm - N/A   Mostly Cloudy
8:35 PM 64.4 °F 42.8 °F 45% 30.42 in 10.0 mi SW 5.8 mph - N/A   Clear
8:54 PM 62.6 °F 42.8 °F 48% 30.43 in 10.0 mi Calm Calm - N/A   Clear
9:15 PM 62.6 °F 42.8 °F 48% 30.43 in 10.0 mi WSW 4.6 mph - N/A   Clear
9:35 PM 60.8 °F 44.6 °F 55% 30.43 in 10.0 mi Calm Calm - N/A   Clear
9:55 PM 59.0 °F 42.8 °F 55% 30.43 in 10.0 mi North 3.5 mph - N/A   Clear
10:15 PM 59.0 °F 42.8 °F 55% 30.42 in 10.0 mi Calm Calm - N/A   Clear
10:35 PM 55.4 °F 42.8 °F 63% 30.42 in 10.0 mi Calm Calm - N/A   Clear
10:55 PM 55.4 °F 42.8 °F 63% 30.42 in 10.0 mi Calm Calm - N/A   Clear
11:15 PM 53.6 °F 42.8 °F 67% 30.42 in 10.0 mi Calm Calm - N/A   Clear
11:35 PM 55.4 °F 42.8 °F 63% 30.42 in 10.0 mi Calm Calm - N/A   Clear
11:55 PM 53.6 °F 42.8 °F 67% 30.42 in 10.0 mi East 3.5 mph - N/A   Clear